Date,TemperatureHighF,TemperatureAvgF,TemperatureLowF,DewpointHighF,DewpointAvgF,DewpointLowF,HumidityHigh,HumidityAvg,HumidityLow,PressureMaxIn,PressureMinIn,WindSpeedMaxMPH,WindSpeedAvgMPH,GustSpeedMaxMPH,PrecipitationSumIn
2013-2-1,32.8,27.7,16.5,25.9,11.5,3.7,83,52,31,30.39,29.78,6,2,18,0.00
2013-2-2,34.2,23.6,11.9,26.5,15.1,7.7,94,72,39,30.40,30.00,4,1,8,0.00
2013-2-3,40.3,30.5,20.4,30.5,24.3,18.8,96,79,56,30.00,29.81,4,1,7,0.02
2013-2-4,37.4,30.9,20.0,23.8,18.7,15.4,84,61,46,30.11,29.90,4,1,6,0.00
2013-2-5,57.0,42.8,32.1,35.3,29.6,22.5,82,61,43,29.91,29.80,4,1,9,0.00
2013-2-6,55.4,39.2,27.1,34.8,28.5,24.3,90,68,36,30.33,29.91,3,0,9,0.00
2013-2-7,40.8,35.2,27.4,31.7,26.8,23.0,85,72,53,30.42,30.15,2,0,3,0.00
2013-2-8,49.0,39.3,32.9,41.4,33.7,24.8,96,81,59,30.15,29.76,4,1,14,0.11
2013-2-9,49.0,35.2,20.1,24.6,19.6,14.4,85,56,26,30.37,29.94,4,1,14,0.00
2013-2-10,46.5,31.1,14.9,30.8,19.2,12.7,95,66,34,30.49,30.24,4,1,9,0.01
2013-2-11,55.0,46.1,36.0,51.8,42.9,31.1,98,89,40,30.24,29.76,4,2,9,0.10
2013-2-12,58.6,48.4,35.5,34.0,28.6,24.5,80,49,28,29.98,29.81,3,1,9,0.00
2013-2-13,42.4,37.4,31.1,37.4,32.9,28.8,96,84,68,29.91,29.63,2,0,4,0.06
2013-2-14,51.8,35.7,22.9,37.5,28.1,21.7,98,78,37,30.02,29.79,3,0,6,0.01
2013-2-15,60.9,42.6,25.1,38.4,31.6,23.3,97,70,33,30.04,29.86,4,1,6,0.11
2013-2-16,39.1,35.0,23.9,35.4,29.4,17.4,97,81,60,30.01,29.83,2,0,8,0.02
2013-2-17,32.5,25.4,18.1,20.2,10.3,3.3,87,55,31,30.23,29.86,5,2,12,0.01
2013-2-18,48.1,30.5,12.7,22.5,13.9,8.3,88,55,24,30.39,30.18,3,1,12,0.00
2013-2-19,45.4,38.6,33.1,42.3,30.9,21.4,94,75,48,30.17,29.75,4,2,19,0.10
2013-2-20,46.3,35.8,24.8,23.0,18.0,15.0,76,50,29,30.14,29.87,4,1,19,0.00
2013-2-21,45.0,32.3,23.5,20.9,18.4,15.9,80,58,35,30.30,30.13,3,1,5,0.00
2013-2-22,36.9,33.8,31.1,31.7,25.2,19.3,86,71,59,30.36,30.20,2,0,4,0.01
2013-2-23,46.6,38.3,33.8,42.9,36.2,31.5,96,92,86,30.20,29.81,2,0,4,0.00
2013-2-24,59.0,44.4,31.9,43.0,34.4,23.2,97,72,32,30.10,29.80,3,1,6,0.00
2013-2-25,46.0,33.7,22.9,25.3,21.8,18.5,85,63,39,30.23,30.10,2,0,6,0.00
2013-2-26,45.2,35.8,25.2,44.1,32.7,20.6,97,88,76,30.21,29.57,3,0,7,0.95
2013-2-27,58.2,47.1,41.1,44.9,38.9,33.5,97,76,42,29.69,29.54,4,1,9,0.00
2013-2-28,47.1,41.6,35.8,37.6,30.3,25.6,89,65,43,29.75,29.61,4,1,10,0.00